Home   Weather   Astrakhan   Past weeks

Flag for Russia Past Weather in Astrakhan, Russia — Yesterday and Last 2 Weeks

Now
19 °F

Clear.


Feels Like: 5 °F
Forecast: 23 / 37 °F
Wind: 15 mph from Southwest

Location: Astrakhan

Current Time: Dec 8, 2016 at 10:28:50 pm

Latest Report: Dec 8, 2016 at 9:30 pm


Visibility: 10 mi

Pressure: 30.24 "Hg

Humidity: 63%

Dew Point: 9 °F

Location of AstrakhanLocation

Past Weather in Astrakhan — Graph

°F

Astrakhan Temperature Yesterday

Maximum temperature yesterday: 39 °F (at 11:00 am)
Minimum temperature yesterday: 10 °F (at 11:30 pm)
Average temperature yesterday: 30 °F

High & Low Weather Summary for the Past Weeks

 TemperatureHumidityPressure
High50 °F (Nov 28, 12:00 pm)93% (Nov 24, 10:00 am)30.89 "Hg (Nov 24, 10:00 am)
Low7 °F (Dec 8, 6:00 am)42% (Dec 7, 3:30 pm)29.65 "Hg (Dec 3, 1:00 am)
Average31 °F78%30.14 "Hg
* Reported Nov 23 9:00 pm — Dec 8 9:00 pm, Astrakhan, Weather by CustomWeather, © 2016

Note: Actual official high and low records may vary slightly from our data, if they occured in-between our weather recording intervals... More about our weather records

Advertising

Astrakhan Weather History for the Previous 24 Hours

Scroll right to see more
 ConditionsComfort  
Time TempWeatherWind HumidityBarometerVisibility
9:00 pm
Thu, Dec 8
19 °FClear.15 mph58%30.27 "Hg10 mi
8:30 pm19 °FClear.17 mph58%30.27 "Hg10 mi
8:00 pm19 °FClear.17 mph58%30.27 "Hg10 mi
7:30 pm19 °FClear.15 mph63%30.30 "Hg10 mi
7:00 pm19 °FClear.15 mph58%30.30 "Hg10 mi
6:30 pm19 °FClear.15 mph58%30.30 "Hg10 mi
6:00 pm19 °FSunny.15 mph53%30.33 "Hg10 mi
5:30 pm19 °FSunny.17 mph53%30.33 "Hg10 mi
5:00 pm19 °FSunny.17 mph53%30.33 "Hg10 mi
4:30 pm21 °FSunny.15 mph54%30.33 "Hg10 mi
4:00 pm21 °FSunny.17 mph54%30.36 "Hg10 mi
3:30 pm21 °FSunny.13 mph58%30.36 "Hg10 mi
3:00 pm21 °FSunny.15 mph58%30.39 "Hg10 mi
2:30 pm19 °FSunny.17 mph63%30.39 "Hg10 mi
2:00 pm19 °FSunny.15 mph63%30.39 "Hg10 mi
1:30 pm18 °FSunny.15 mph68%30.42 "Hg10 mi
1:00 pm16 °FSunny.15 mph67%30.42 "Hg10 mi
12:30 pm16 °FSunny.17 mph67%30.42 "Hg10 mi
12:00 pm14 °FSunny.15 mph67%30.45 "Hg10 mi
11:00 am12 °FSunny.17 mph73%30.45 "Hg10 mi
10:00 am9 °FScattered clouds.17 mph78%30.45 "HgN/A
9:30 am9 °FScattered clouds.15 mph78%30.45 "HgN/A
9:00 am7 °FClear.15 mph85%30.45 "Hg10 mi
8:30 am7 °FClear.13 mph78%30.45 "Hg10 mi
8:00 am7 °FClear.15 mph78%30.45 "Hg10 mi
7:30 am7 °FClear.15 mph78%30.45 "Hg10 mi
7:00 am7 °FClear.13 mph78%30.42 "Hg10 mi
6:30 am7 °FClear.17 mph78%30.42 "Hg10 mi
6:00 am7 °FPassing clouds.15 mph78%30.42 "HgN/A
5:00 am9 °FPassing clouds.17 mph78%30.39 "HgN/A
4:30 am9 °FClear.15 mph78%30.39 "Hg10 mi
4:00 am9 °FClear.15 mph72%30.39 "Hg10 mi
3:30 am9 °FPassing clouds.15 mph78%30.39 "HgN/A
3:00 am9 °FPassing clouds.17 mph78%30.39 "HgN/A
2:30 am9 °FPassing clouds.13 mph78%30.36 "HgN/A
2:00 am9 °FClear.13 mph78%30.36 "Hg10 mi
1:30 am9 °FClear.13 mph78%30.33 "Hg10 mi
1:00 am9 °FClear.13 mph78%30.33 "Hg10 mi
12:30 am9 °FClear.15 mph78%30.33 "Hg10 mi
12:00 am10 °FClear.13 mph72%30.30 "Hg10 mi
11:30 pm
Wed, Dec 7
10 °FClear.20 mph79%30.27 "Hg10 mi
11:00 pm12 °FClear.13 mph73%30.27 "Hg10 mi
10:30 pm14 °FClear.15 mph73%30.27 "Hg10 mi
10:00 pm18 °FPassing clouds.20 mph73%30.24 "HgN/A
Weather by CustomWeather, © 2016

See weather overviewHow to use our weather pages